NIMBUS 2 DEB, 42439

Orbit data source: Space-Track

NIMBUS 2 DEB, 42439 is space debris in SSO originally from a launch on Sun, 15 May 1966 UTC launched from the Air Force Western Test Range (AFWTR). Debris objects in space refer to the collection of defunct objects orbiting the Earth. Examples of debris include non-operational satellites, rocket bodies, and fragments generated from explosions, collisions, or faulty payload assembly.

Loading next visibility...
Identifier
42439, 1966-040BS
Orbit
SSO
Country
Flag of USUS
Related business
Manufacturer
Unknown
Mission
Spacecraft
Bus & Motor
Unknown
Mass
Unknown
Launch date (UTC)
1966-05-15 (60 years ago)
Launch vehicle
Unknown
Launch site
Air Force Western Test Range (AFWTR)
Object type
Payload
Rocket body
Debris
Shape & HBR
Unknown shape, 0.1 m
Radar Cross Section
Small (<0.1 m²)

Expand to show TLE details & history
Last TLE update: 15 hours ago

TLE from 15 hours ago
0 NIMBUS 2 DEB
1 42439U 66040BS  26130.31679943  .00001839  00000-0  29447-2 0  9991
2 42439 100.2402 346.0106 0032093 219.3771 140.5028 13.50232251517906
Epoch: 2026-05-10T07:36Z
TLE epoch observation values (Epoch: 2026-05-10T07:36:11.470Z)
Latitude
-0.00003°
Longitude
3.84119°
Altitude
1,092.654 km
Speed
7.297 km/s
True Right ascension
23h 04m 02s
True Declination
0° 00' 00"
Sunlit
Object was in daylight at epoch
Visualization orbit readout
Latitude
Unknown
Longitude
Unknown
Altitude
Unknown
Speed
Unknown
Apparent Right ascension
Unknown
Apparent Declination
Unknown
Sunlit
N/A
Visualization observer readout
Local Sidereal Time
06:58:42
Azimuth
Unknown
Elevation
Unknown
Doppler factor
Unknown
Orbital elements
Apogee altitude
1,092.633 km
Perigee altitude
1,044.834 km
Semi-major axis
7,446.871 km
Eccentricity
0.00321
Inclination
100.2402°
RAAN
346.0106°
Arg. of periapsis
219.3771°
True anomaly
140.73599°
Mean anomaly
140.5028°
Eccentric anomaly
140.61947°
Mean motion
3.3774 °/min
Orbital period
106.59 mins
BSTAR
0.0029447
Loading maneuver chart data...
Computing Atmospheric mass density...
Loading historical data...
Loading historical data...
Loading historical data...
Loading historical data...
Loading historical data...
Loading historical data...
Loading historical data...

Documentation

Showing up to 5 results
|